Regional Weather Roundup
Issued by NWS

Home | Current Version | Previous Version | Text Only | Print | Product List | Glossary Off
Versions: 1 2 3 4 5 6 7 8 9 10 11 12 13 14 15 16 17 18 19 20 21 22 23 24 25 26 27 28 29 30 31 32 33 34 35 36 37 38 39 40 41 42 43 44 45 46 47 48 49 50

000
ASUS45 KBOU 040407
RWRCO

WEATHER ROUNDUP FOR COLORADO
NATIONAL WEATHER SERVICE DENVER/BOULDER CO
1000 PM MDT MON AUG 03 2015

NOTE: "FAIR" INDICATES FEW OR NO CLOUDS BELOW 12000 FEET WITH NO
SIGNIFICANT WEATHER AND/OR OBSTRUCTIONS TO VISIBILITY.

COZ001>005-013-030-031-040500-
...NORTHWEST COLORADO...

CITY           SKY/WX    TMP DP  RH WIND       PRES   REMARKS
CRAIG          CLOUDY    62  56  80 N5        30.16R
HAYDEN         CLOUDY    57  52  82 E7        30.17F
MEEKER         PTCLDY    60  52  74 VRB3      30.17R
MOUNT WERNER   NOT AVBL
STEAMBOAT SPGS   N/A     56  53  91 SE3       30.20S
WALDEN         CLOUDY    50  45  81 E7        30.28F
$$

COZ006>008-011-040500-
...WEST CENTRAL VALLEYS...

CITY           SKY/WX    TMP DP  RH WIND       PRES   REMARKS
GRAND JUNCTION MOCLDY    73  47  39 NW3       30.05R
MONTROSE       MOCLDY    70  49  47 S6        30.16R
EAGLE          PTCLDY    63  50  63 E5        30.20R
RIFLE          PTCLDY    66  55  67 NE5       30.11R
DELTA          MOCLDY    73  53  48 NE9       30.11R
NUCLA          NOT AVBL
$$

COZ017>023-064>068-040500-
...SOUTHWEST COLORADO...

CITY           SKY/WX    TMP DP  RH WIND       PRES   REMARKS
DURANGO        CLEAR     64  39  39 CALM      30.22R
CORTEZ         CLEAR     66  45  46 NE9       30.17R
PAGOSA SPRINGS CLEAR     56  53  89 CALM      30.29S
TELLURIDE      NOT AVBL
WOLF CREEK PAS NOT AVBL
$$

COZ009-010-012-014-032>034-037-058>063-040500-
...CENTRAL COLORADO...

CITY           SKY/WX    TMP DP  RH WIND       PRES   REMARKS
ASPEN          MOCLDY    54  48  80 S6        30.28S
BUENA VISTA    MOCLDY    58  45  60 N6        30.29R
COPPER MTN     PTCLDY    50  34  53 SW15G23   30.57S
BERTHOUD PASS  FAIR      41  32  70 W22G39    30.59F
COTTONWOOD PAS MOCLDY    55  39  54 NW7       30.42S
GUNNISON       MOCLDY    59  48  67 N7        30.31S
KREMMLING      MOCLDY    55  43  62 CALM      30.26R
LEADVILLE      PTCLDY    51  39  63 N6        30.42R
MONARCH PASS   MOCLDY    45  41  87 W23       30.67R
SALIDA         MOCLDY    61  50  65 CALM      30.34R
SUNLIGHT       PTCLDY    46  45  93 CALM      30.48S
WILKERSON PASS NOT AVBL
$$

COZ069>075-040500-
...SAN LUIS VALLEY/SANGRE DE CRISTO MOUNTAINS...

CITY           SKY/WX    TMP DP  RH WIND       PRES   REMARKS
ALAMOSA        PTCLDY    56  51  84 CALM      30.26R
LA VETA PASS   MOCLDY    50  48  93 MISG      30.45F
SAGUACHE       PTCLDY    57  46  67 NE6       30.30R
$$

COZ035-036-038>040-040500-
...NORTHERN COLORADO FRONT RANGE...

CITY           SKY/WX    TMP DP  RH WIND       PRES   REMARKS
DENVER INTL AP MOCLDY    65  51  60 S9        30.09F
DMNS CITY PARK   N/A     66  55  68 E16       30.08S
AURORA         MOCLDY    64  54  70 S10       30.11F
FRONT RANGE AP NOT AVBL
ERIE MUNI ARPT MOCLDY    71  52  51 E6        30.07S
BOULDER MUN AP MOCLDY    72  50  46 SE7       30.08R
CENTENNIAL     PTCLDY    65  55  70 S10       30.12S
BROOMFIELD     MOCLDY    70  54  56 SE5       30.11S
FORT COLLINS   MOCLDY    72  52  49 SE10      30.07R
LONGMONT       MOCLDY    73  52  47 S3        30.08R
$$

COZ041-046-047-076>085-087-088-040500-
...PIKES PEAK/PALMER DIVIDE AND SOUTHERN FOOTHILLS...

CITY           SKY/WX    TMP DP  RH WIND       PRES   REMARKS
COLO. SPRINGS  CLOUDY    62  59  90 NW6       30.18F
A. F. ACADEMY  CLOUDY    60  59  96 E5        30.18F
ELLICOTT       TSTM     N/A N/A N/A SE5       30.14F
FALCON         CLOUDY    59  54  82 W7        30.22F
FORT CARSON    CLOUDY    62  58  86 NW9       30.14F
LIMON          MOCLDY    58  54  86 CALM      30.12S
MONUMENT HILL  MOCLDY    59  52  77 SW9       30.22S
TRINIDAD       MOCLDY    63  60  90 NW7       30.15R
$$

COZ042>045-048>051-090-091-040500-
...NORTHEAST COLORADO...

CITY           SKY/WX    TMP DP  RH WIND       PRES   REMARKS
GREELEY ARPT   MOCLDY    72  52  49 S10G18    30.06F
AKRON          PTCLDY    65  48  54 S9        30.07R
BURLINGTON     PTCLDY    68  54  60 S12G21    30.04R
WRAY           MOCLDY    65  52  62 W3        30.01S
STERLING       PTCLDY    68  52  56 SW8       30.03R
HOLYOKE        MOCLDY    70  54  56 SW6       30.01S
FORT MORGAN    PTCLDY    67  50  54 SW6       30.07S
$$

COZ086-089-092>099-040500-
...SOUTHEAST COLORADO...

CITY           SKY/WX    TMP DP  RH WIND       PRES   REMARKS
PUEBLO         TSTM      62  56  80 E14G20    30.11R
LA JUNTA       MOCLDY    69  56  62 E5        30.03R
LAMAR          PTCLDY    68  62  81 E9        29.99R
SPRINGFIELD      N/A     66  63  90 N5        30.05R
$$


USA.gov is the U.S. government's official web portal to all federal, state and local government web resources and services.